Time,TemperatureF,DewpointF,PressureIn,WindDirection,WindDirectionDegrees,WindSpeedMPH,WindSpeedGustMPH,Humidity,HourlyPrecipIn,Conditions,Clouds,dailyrainin,SoftwareType,DateUTC
2013-05-30 00:02:00,66.6,62.9,30.03,South,180,0.0,-999.0,88,-99.99,,,0.00,Acu-Link.com,2013-05-30 04:02:00,
2013-05-30 00:17:00,66.6,62.9,30.03,North,0,0.0,-999.0,88,-99.99,,,0.00,Acu-Link.com,2013-05-30 04:17:00,
2013-05-30 00:32:00,66.4,62.7,30.03,NNW,337,0.0,-999.0,88,-99.99,,,0.00,Acu-Link.com,2013-05-30 04:32:00,
2013-05-30 00:47:00,66.2,62.9,30.02,East,90,1.1,-999.0,89,-99.99,,,0.00,Acu-Link.com,2013-05-30 04:47:00,
2013-05-30 01:02:00,66.0,62.7,30.03,SSE,157,0.0,-999.0,89,-99.99,,,0.00,Acu-Link.com,2013-05-30 05:02:00,
2013-05-30 01:17:00,66.2,62.9,30.01,NE,45,1.7,-999.0,89,-99.99,,,0.00,Acu-Link.com,2013-05-30 05:17:00,
2013-05-30 01:33:00,66.0,62.7,30.03,East,90,0.0,-999.0,89,-99.99,,,0.00,Acu-Link.com,2013-05-30 05:33:00,
2013-05-30 01:48:00,66.2,62.9,30.03,West,270,0.0,-999.0,89,-99.99,,,0.00,Acu-Link.com,2013-05-30 05:48:00,
2013-05-30 02:03:00,66.2,62.9,30.03,East,90,0.0,-999.0,89,-99.99,,,0.00,Acu-Link.com,2013-05-30 06:03:00,
2013-05-30 02:18:00,65.7,62.4,30.03,NW,315,0.0,-999.0,89,-99.99,,,0.00,Acu-Link.com,2013-05-30 06:18:00,
2013-05-30 02:33:00,65.5,62.5,30.03,ENE,67,0.0,-999.0,90,-99.99,,,0.00,Acu-Link.com,2013-05-30 06:33:00,
2013-05-30 02:48:00,65.1,62.4,30.02,ENE,67,0.0,-999.0,91,-99.99,,,0.00,Acu-Link.com,2013-05-30 06:48:00,
2013-05-30 03:03:00,64.8,62.1,30.02,ENE,67,0.0,-999.0,91,-99.99,,,0.00,Acu-Link.com,2013-05-30 07:03:00,
2013-05-30 03:18:00,64.4,61.7,30.02,ENE,67,0.0,-999.0,91,-99.99,,,0.00,Acu-Link.com,2013-05-30 07:18:00,
2013-05-30 03:33:00,64.2,61.8,30.02,ENE,67,0.0,-999.0,92,-99.99,,,0.00,Acu-Link.com,2013-05-30 07:33:00,
2013-05-30 03:49:00,63.9,61.8,30.02,ENE,67,0.0,-999.0,93,-99.99,,,0.00,Acu-Link.com,2013-05-30 07:49:00,
2013-05-30 04:04:00,63.5,61.4,30.02,ENE,67,0.0,-999.0,93,-99.99,,,0.00,Acu-Link.com,2013-05-30 08:04:00,
2013-05-30 04:19:00,63.5,61.4,30.03,ENE,67,0.0,-999.0,93,-99.99,,,0.00,Acu-Link.com,2013-05-30 08:19:00,
2013-05-30 04:34:00,63.1,61.0,30.03,ENE,67,0.0,-999.0,93,-99.99,,,0.00,Acu-Link.com,2013-05-30 08:34:00,
2013-05-30 04:49:00,63.0,61.2,30.03,ENE,67,0.0,-999.0,94,-99.99,,,0.00,Acu-Link.com,2013-05-30 08:49:00,
2013-05-30 05:05:00,62.6,60.8,30.02,ENE,67,0.0,-999.0,94,-99.99,,,0.00,Acu-Link.com,2013-05-30 09:05:00,
2013-05-30 05:20:00,62.8,61.0,30.03,East,90,0.0,-999.0,94,-99.99,,,0.00,Acu-Link.com,2013-05-30 09:20:00,
2013-05-30 05:35:00,62.2,60.4,30.04,East,90,0.0,-999.0,94,-99.99,,,0.00,Acu-Link.com,2013-05-30 09:35:00,
2013-05-30 05:50:00,61.7,60.0,30.04,East,90,0.0,-999.0,94,-99.99,,,0.00,Acu-Link.com,2013-05-30 09:50:00,
2013-05-30 06:05:00,61.3,59.6,30.05,East,90,0.0,-999.0,94,-99.99,,,0.00,Acu-Link.com,2013-05-30 10:05:00,
2013-05-30 06:20:00,61.2,59.8,30.05,NE,45,0.0,-999.0,95,-99.99,,,0.00,Acu-Link.com,2013-05-30 10:20:00,
2013-05-30 06:35:00,61.0,59.6,30.08,NE,45,0.0,-999.0,95,-99.99,,,0.00,Acu-Link.com,2013-05-30 10:35:00,
2013-05-30 06:50:00,61.0,59.6,30.08,NE,45,0.0,-999.0,95,-99.99,,,0.00,Acu-Link.com,2013-05-30 10:50:00,
2013-05-30 07:06:00,61.3,59.9,30.08,NE,45,0.0,-999.0,95,-99.99,,,0.00,Acu-Link.com,2013-05-30 11:06:00,
2013-05-30 07:21:00,61.5,60.1,30.09,NE,45,0.0,-999.0,95,-99.99,,,0.00,Acu-Link.com,2013-05-30 11:21:00,
2013-05-30 07:36:00,62.2,60.7,30.09,NE,45,0.0,-999.0,95,-99.99,,,0.00,Acu-Link.com,2013-05-30 11:36:00,
2013-05-30 07:51:00,63.5,62.0,30.09,NE,45,0.0,-999.0,95,-99.99,,,0.00,Acu-Link.com,2013-05-30 11:51:00,
2013-05-30 08:06:00,64.8,63.3,30.09,NE,45,0.0,-999.0,95,-99.99,,,0.00,Acu-Link.com,2013-05-30 12:06:00,
2013-05-30 08:21:00,66.4,64.3,30.09,South,180,0.0,-999.0,93,-99.99,,,0.00,Acu-Link.com,2013-05-30 12:21:00,
2013-05-30 08:36:00,68.5,65.1,30.10,SE,135,0.0,-999.0,89,-99.99,,,0.00,Acu-Link.com,2013-05-30 12:36:00,
2013-05-30 08:51:00,69.8,65.4,30.10,SW,225,0.0,-999.0,86,-99.99,,,0.00,Acu-Link.com,2013-05-30 12:51:00,
2013-05-30 09:06:00,70.5,65.8,30.10,NNE,22,0.0,-999.0,85,-99.99,,,0.00,Acu-Link.com,2013-05-30 13:06:00,
2013-05-30 09:22:00,70.5,65.4,30.11,NW,315,4.2,-999.0,84,-99.99,,,0.00,Acu-Link.com,2013-05-30 13:22:00,
2013-05-30 09:37:00,73.0,66.8,30.11,SW,225,2.2,-999.0,81,-99.99,,,0.00,Acu-Link.com,2013-05-30 13:37:00,
2013-05-30 09:52:00,73.6,65.9,30.11,WSW,247,1.7,-999.0,77,-99.99,,,0.00,Acu-Link.com,2013-05-30 13:52:00,
2013-05-30 10:07:00,72.9,65.3,30.10,SW,225,0.0,-999.0,77,-99.99,,,0.00,Acu-Link.com,2013-05-30 14:07:00,
2013-05-30 10:22:00,75.0,66.1,30.10,ESE,112,1.7,-999.0,74,-99.99,,,0.00,Acu-Link.com,2013-05-30 14:22:00,
2013-05-30 10:37:00,74.3,65.5,30.09,SSE,157,1.7,-999.0,74,-99.99,,,0.00,Acu-Link.com,2013-05-30 14:37:00,
2013-05-30 10:52:00,77.2,65.4,30.10,North,0,2.2,-999.0,67,-99.99,,,0.00,Acu-Link.com,2013-05-30 14:52:00,
2013-05-30 11:07:00,77.0,65.6,30.09,West,270,1.7,-999.0,68,-99.99,,,0.00,Acu-Link.com,2013-05-30 15:07:00,
2013-05-30 11:22:00,78.1,65.4,30.09,WNW,292,2.2,-999.0,65,-99.99,,,0.00,Acu-Link.com,2013-05-30 15:22:00,
2013-05-30 11:38:00,78.1,65.4,30.10,NNE,22,2.2,-999.0,65,-99.99,,,0.00,Acu-Link.com,2013-05-30 15:38:00,
2013-05-30 11:53:00,77.2,65.8,30.09,West,270,1.7,-999.0,68,-99.99,,,0.00,Acu-Link.com,2013-05-30 15:53:00,
2013-05-30 12:08:00,79.5,65.8,30.09,WNW,292,2.2,-999.0,63,-99.99,,,0.00,Acu-Link.com,2013-05-30 16:08:00,
2013-05-30 12:23:00,80.4,65.2,30.08,NW,315,1.7,-999.0,60,-99.99,,,0.00,Acu-Link.com,2013-05-30 16:23:00,
2013-05-30 12:38:00,83.3,65.9,30.08,ESE,112,0.0,-999.0,56,-99.99,,,0.00,Acu-Link.com,2013-05-30 16:38:00,
2013-05-30 12:53:00,82.2,64.4,30.08,WNW,292,2.2,-999.0,55,-99.99,,,0.00,Acu-Link.com,2013-05-30 16:53:00,
2013-05-30 13:08:00,82.2,63.9,30.07,ENE,67,2.7,-999.0,54,-99.99,,,0.00,Acu-Link.com,2013-05-30 17:08:00,
2013-05-30 13:23:00,83.5,62.3,30.07,South,180,1.7,-999.0,49,-99.99,,,0.00,Acu-Link.com,2013-05-30 17:23:00,
2013-05-30 13:38:00,83.3,62.7,30.05,SSE,157,3.2,-999.0,50,-99.99,,,0.00,Acu-Link.com,2013-05-30 17:38:00,
2013-05-30 13:53:00,83.3,64.4,30.05,ESE,112,1.7,-999.0,53,-99.99,,,0.00,Acu-Link.com,2013-05-30 17:53:00,
2013-05-30 14:09:00,84.0,62.2,30.05,West,270,0.0,-999.0,48,-99.99,,,0.00,Acu-Link.com,2013-05-30 18:09:00,
2013-05-30 14:25:00,83.3,62.7,30.05,West,270,2.2,-999.0,50,-99.99,,,0.00,Acu-Link.com,2013-05-30 18:25:00,
2013-05-30 14:41:00,83.1,63.1,30.03,ENE,67,3.2,-999.0,51,-99.99,,,0.00,Acu-Link.com,2013-05-30 18:41:00,
2013-05-30 14:56:00,83.3,63.3,30.03,WSW,247,1.1,-999.0,51,-99.99,,,0.00,Acu-Link.com,2013-05-30 18:56:00,
2013-05-30 15:11:00,82.4,63.0,30.03,NW,315,1.1,-999.0,52,-99.99,,,0.00,Acu-Link.com,2013-05-30 19:11:00,
2013-05-30 15:26:00,83.3,63.8,30.01,SW,225,1.7,-999.0,52,-99.99,,,0.00,Acu-Link.com,2013-05-30 19:26:00,
2013-05-30 15:41:00,83.5,60.5,30.01,SSE,157,1.1,-999.0,46,-99.99,,,0.00,Acu-Link.com,2013-05-30 19:41:00,
2013-05-30 15:56:00,82.8,62.2,30.01,West,270,2.2,-999.0,50,-99.99,,,0.00,Acu-Link.com,2013-05-30 19:56:00,
2013-05-30 16:11:00,83.5,62.9,30.01,SSE,157,1.1,-999.0,50,-99.99,,,0.00,Acu-Link.com,2013-05-30 20:11:00,
2013-05-30 16:26:00,83.5,63.4,30.00,North,0,3.2,-999.0,51,-99.99,,,0.00,Acu-Link.com,2013-05-30 20:26:00,
2013-05-30 16:42:00,85.8,62.6,30.00,East,90,2.7,-999.0,46,-99.99,,,0.00,Acu-Link.com,2013-05-30 20:42:00,
2013-05-30 16:57:00,84.9,64.7,30.01,SE,135,0.0,-999.0,51,-99.99,,,0.00,Acu-Link.com,2013-05-30 20:57:00,
2013-05-30 17:12:00,84.0,62.8,30.00,West,270,2.7,-999.0,49,-99.99,,,0.00,Acu-Link.com,2013-05-30 21:12:00,
2013-05-30 17:27:00,82.9,62.9,29.99,SW,225,1.7,-999.0,51,-99.99,,,0.00,Acu-Link.com,2013-05-30 21:27:00,
2013-05-30 17:42:00,83.3,62.7,29.99,NE,45,2.7,-999.0,50,-99.99,,,0.00,Acu-Link.com,2013-05-30 21:42:00,
2013-05-30 17:57:00,82.0,62.6,30.00,NNE,22,0.0,-999.0,52,-99.99,,,0.00,Acu-Link.com,2013-05-30 21:57:00,
2013-05-30 18:12:00,82.0,63.2,29.99,NNE,22,2.2,-999.0,53,-99.99,,,0.00,Acu-Link.com,2013-05-30 22:12:00,
2013-05-30 18:27:00,81.3,63.0,29.99,West,270,0.0,-999.0,54,-99.99,,,0.00,Acu-Link.com,2013-05-30 22:27:00,
2013-05-30 18:42:00,81.0,63.3,29.99,WSW,247,1.7,-999.0,55,-99.99,,,0.00,Acu-Link.com,2013-05-30 22:42:00,
2013-05-30 18:58:00,80.4,62.7,29.99,NNE,22,2.2,-999.0,55,-99.99,,,0.00,Acu-Link.com,2013-05-30 22:58:00,
2013-05-30 19:13:00,79.9,63.8,29.99,ESE,112,0.0,-999.0,58,-99.99,,,0.00,Acu-Link.com,2013-05-30 23:13:00,
2013-05-30 19:28:00,79.5,63.4,29.98,West,270,0.0,-999.0,58,-99.99,,,0.00,Acu-Link.com,2013-05-30 23:28:00,
2013-05-30 19:43:00,78.4,63.8,29.98,NNW,337,0.0,-999.0,61,-99.99,,,0.00,Acu-Link.com,2013-05-30 23:43:00,
2013-05-30 19:58:00,77.2,64.1,29.99,NNW,337,0.0,-999.0,64,-99.99,,,0.00,Acu-Link.com,2013-05-30 23:58:00,
2013-05-30 20:13:00,75.6,65.9,29.99,ESE,112,0.0,-999.0,72,-99.99,,,0.00,Acu-Link.com,2013-05-31 00:13:00,
2013-05-30 20:28:00,74.8,65.2,29.98,NNE,22,0.0,-999.0,72,-99.99,,,0.00,Acu-Link.com,2013-05-31 00:28:00,
2013-05-30 20:43:00,73.8,65.0,29.98,NNW,337,0.0,-999.0,74,-99.99,,,0.00,Acu-Link.com,2013-05-31 00:43:00,
2013-05-30 20:58:00,72.7,65.1,29.98,WNW,292,0.0,-999.0,77,-99.99,,,0.00,Acu-Link.com,2013-05-31 00:58:00,
2013-05-30 21:13:00,71.8,64.9,29.97,East,90,0.0,-999.0,79,-99.99,,,0.00,Acu-Link.com,2013-05-31 01:13:00,
2013-05-30 21:29:00,71.1,65.3,29.98,ENE,67,0.0,-999.0,82,-99.99,,,0.00,Acu-Link.com,2013-05-31 01:29:00,
2013-05-30 21:44:00,70.5,64.7,29.98,West,270,0.0,-999.0,82,-99.99,,,0.00,Acu-Link.com,2013-05-31 01:44:00,
2013-05-30 21:59:00,70.0,64.6,30.00,West,270,0.0,-999.0,83,-99.99,,,0.00,Acu-Link.com,2013-05-31 01:59:00,
2013-05-30 22:14:00,69.4,64.0,30.00,NNW,337,0.0,-999.0,83,-99.99,,,0.00,Acu-Link.com,2013-05-31 02:14:00,
2013-05-30 22:29:00,69.1,64.1,30.01,NW,315,0.0,-999.0,84,-99.99,,,0.00,Acu-Link.com,2013-05-31 02:29:00,
2013-05-30 22:44:00,68.5,63.8,30.00,NW,315,0.0,-999.0,85,-99.99,,,0.00,Acu-Link.com,2013-05-31 02:44:00,
2013-05-30 22:59:00,68.2,63.8,30.02,East,90,0.0,-999.0,86,-99.99,,,0.00,Acu-Link.com,2013-05-31 02:59:00,
2013-05-30 23:14:00,67.6,63.6,30.01,NW,315,0.0,-999.0,87,-99.99,,,0.00,Acu-Link.com,2013-05-31 03:14:00,
2013-05-30 23:29:00,67.5,63.5,30.02,North,0,0.0,-999.0,87,-99.99,,,0.00,Acu-Link.com,2013-05-31 03:29:00,
2013-05-30 23:45:00,67.3,63.6,30.02,SW,225,0.0,-999.0,88,-99.99,,,0.00,Acu-Link.com,2013-05-31 03:45:00,